{"data":{"norad_id":45369,"intl_designator":"2020-019K","name":"STARLINK-1277","alt_names":[],"object_type":"PAYLOAD","status":"ACTIVE","operator":null,"country":"US","launch_date":"2020-03-18","launch_site_code":"AFETR","launch_vehicle":null,"mission":null,"orbit_class":"UNKNOWN","rcs_meters":null,"size_class":null,"mass_kg":null,"dimensions":null,"purposes":["comms"],"wikipedia_slug":null,"has_3d_model":false,"image_url":null,"decayed_at":null,"tle_current":{"epoch":"2026-05-25T03:39:11.985984Z","epoch_age_seconds":72190,"freshness":"FRESH","line1":"1 45369U 20019K   26145.15222206  .00088984  00000+0  10146-2 0  9997","line2":"2 45369  53.0427 142.6387 0006733   1.2796 358.8233 15.61491285341838","mean_motion":15.61491285,"eccentricity":0.0006733,"inclination_deg":53.0427,"raan_deg":142.6387,"arg_perigee_deg":1.2796,"mean_anomaly_deg":358.8233,"bstar":0.0010146,"rev_number":34183,"period_min":92.219534865992,"perigee_km":378.79615524158,"apogee_km":387.9011718361,"semimajor_km":6761.4856635388,"source":"CELESTRAK","updated_at":"2026-05-25T13:38:16.387432Z"}}}